[[[{"header":{"parameterUnit":"kt","parameterCategory":2,"dx":1,"dy":1,"la1":30.253999710083008,"la2":30.299108505249023,"lo1":-89.0895004272461,"lo2":-89.04439544677734,"nx":28,"ny":28,"refTime":"2022-10-01T21:00:00:Z","depth":"0","parameterNumber":2,"parameterNumberName":"U-component_of_CURRENTS"},"data":[-0.4158,-0.429,-0.4506,-0.4456,-0.4517,-0.4081,-0.3789,-0.3304,-0.2868,-0.1786,-0.102,-0.0637,-0.0436,-0.0494,-0.08,-0.0978,-0.1233,-0.1133,-0.1394,-0.181,-0.193,-0.2045,-0.1953,-0.0919,-0.092,-0.0951,-0.0952,-0.0952,-0.4291,-0.4516,-0.4835,-0.5097,-0.5098,-0.5311,-0.523,-0.4849,-0.4231,-0.3856,-0.3182,-0.2029,-0.1535,-0.1494,-0.139,-0.1475,-0.1765,-0.1633,-0.1948,-0.1995,-0.2348,-0.2228,-0.1236,-0.1236,-0.1236,-0.1236,-0.1236,-0.1236,-0.4612,-0.4737,-0.5052,-0.5388,-0.5643,-0.5632,-0.5488,-0.5578,-0.5359,-0.4827,-0.4836,-0.3964,-0.3462,-0.2768,-0.2803,-0.2644,-0.3038,-0.2662,-0.2836,-0.3023,-0.2853,-0.326,-0.2445,-0.245,-0.2454,-0.2458,-0.2461,0,-0.4797,-0.4971,-0.5207,-0.5561,-0.582,-0.6023,-0.6241,-0.6253,-0.6356,-0.6219,-0.5779,-0.5417,-0.4969,-0.4286,-0.3889,-0.3778,-0.4197,-0.4031,-0.4054,-0.3765,-0.3866,-0.3828,-0.4609,-0.3909,-0.3922,-0.3932,-0.3939,-0.3944,-0.5091,-0.512,-0.5576,-0.5754,-0.5928,-0.6166,-0.6327,-0.6573,-0.663,-0.6598,-0.6553,-0.6335,-0.594,-0.5475,-0.5203,-0.4809,-0.4994,-0.4365,-0.4506,-0.446,-0.4595,-0.4778,-0.4761,-0.4088,-0.4069,-0.4055,-0.4043,0,-0.5279,-0.5468,-0.5619,-0.5949,-0.6082,-0.6196,-0.6546,-0.6605,-0.6707,-0.6706,-0.6719,-0.6756,-0.649,-0.6418,-0.6229,-0.6099,-0.5655,-0.5626,-0.537,-0.5281,-0.4729,-0.4873,-0.4313,-0.4215,-0.5014,-0.5,-0.4988,0,-0.5627,-0.5655,-0.6004,-0.6061,-0.6195,-0.6399,-0.6496,-0.6632,-0.6739,-0.6741,-0.6866,-0.6822,-0.6889,-0.675,-0.6731,-0.6351,-0.6508,-0.6206,-0.6154,-0.5949,-0.5899,-0.5751,-0.588,-0.6601,-0.6603,-0.6605,-0.6607,0,-0.5879,-0.6061,-0.6103,-0.6191,-0.6488,-0.6528,-0.6679,-0.6808,-0.6891,-0.6918,-0.6974,-0.6927,-0.7001,-0.6873,-0.6919,-0.7044,-0.6704,-0.6899,-0.6365,-0.634,-0.5954,-0.5899,-0.5453,-0.661,-0.6611,-0.6612,-0.6612,0,-0.6175,-0.6299,-0.6331,-0.6573,-0.6609,-0.6694,-0.6832,-0.6907,-0.6982,-0.7035,-0.7054,-0.7165,-0.7185,-0.729,-0.7188,-0.7281,-0.7209,-0.7229,-0.7217,-0.6739,-0.682,-0.6211,-0.5897,-0.5842,-0.7163,-0.7168,-0.7172,0,-0.6388,-0.6461,-0.6618,-0.6693,-0.6758,-0.6971,-0.7003,-0.7118,-0.7217,-0.725,-0.7335,-0.7422,-0.7558,-0.7643,-0.7555,-0.7676,-0.75,-0.7682,-0.7358,-0.7348,-0.6882,-0.667,-0.6342,-0.601,-0.7232,-0.7225,-0.7221,0,-0.6551,-0.6812,-0.6795,-0.6866,-0.7064,-0.7174,-0.7209,-0.729,-0.7312,-0.7427,-0.7394,-0.7593,-0.767,-0.7703,-0.783,-0.7744,-0.7609,-0.7763,-0.7756,-0.7579,-0.7266,-0.6816,-0.6734,-0.7572,-0.7565,-0.756,-0.7268,0,-0.677,-0.6884,-0.6911,-0.7026,-0.7141,-0.7206,-0.7368,-0.7444,-0.7542,-0.762,-0.7668,-0.7831,-0.7881,-0.7963,-0.8061,-0.7966,-0.7932,-0.7962,-0.7828,-0.7824,-0.7716,-0.7679,-0.8115,-0.8115,-0.8115,-0.8115,0,0,-0.6811,-0.6944,-0.7134,-0.7176,-0.7252,-0.7459,-0.7476,-0.7582,-0.775,-0.7747,-0.7797,-0.7964,-0.8034,-0.8032,-0.8092,-0.8165,-0.8051,-0.7981,-0.7895,-0.7872,-0.7849,-0.7741,-0.7706,-0.8115,-0.8115,-0.8115,-0.8115,0,-0.6853,-0.7087,-0.7107,-0.7222,-0.7373,-0.7499,-0.7519,-0.7713,-0.7736,-0.784,-0.7911,-0.799,-0.8041,-0.8056,-0.8074,-0.8168,-0.7987,-0.8175,-0.8038,-0.7902,-0.7879,-0.7857,-0.7747,-0.7715,-0.8115,-0.8115,-0.8115,0,-0.6879,-0.7028,-0.7099,-0.735,-0.7459,-0.7538,-0.7638,-0.7754,-0.7781,-0.7862,-0.7885,-0.7985,-0.802,-0.8045,-0.8041,-0.7983,-0.7888,-0.7992,-0.7995,-0.7902,-0.7753,-0.7731,-0.7712,-0.7939,-0.7937,-0.7936,0,0,-0.6869,-0.6986,-0.721,-0.7371,-0.7429,-0.7608,-0.7697,-0.7759,-0.7866,-0.7898,-0.7908,-0.7932,-0.7985,-0.7939,-0.7988,-0.7997,-0.789,-0.7965,-0.7973,-0.798,-0.7892,-0.7747,-0.7728,-0.7932,-0.7932,-0.7932,0,0,-0.6847,-0.7085,-0.7155,-0.7378,-0.7498,-0.7711,-0.7765,-0.7851,-0.7934,-0.7914,-0.791,-0.7898,-0.7919,-0.7897,-0.7852,-0.787,-0.7846,-0.7856,-0.7824,-0.7835,-0.7844,-0.7721,-0.7718,0,0,0,0,0,-0.6926,-0.7062,-0.7125,-0.7189,-0.7551,-0.7714,-0.7756,-0.7838,-0.7863,-0.7879,-0.7928,-0.7823,-0.7872,-0.7832,-0.7831,-0.7779,-0.7877,-0.7887,-0.7896,-0.7868,-0.7879,-0.7889,0,0,0,0,0,0,-0.6952,-0.7032,-0.7121,-0.7351,-0.7433,-0.7714,-0.7729,-0.7757,-0.7854,-0.7848,-0.7845,-0.7825,-0.7792,-0.7825,-0.7826,-0.7775,-0.7718,-0.7881,-0.7889,-0.7897,-0.7871,-0.7881,-0.7889,0,0,0,0,0,-0.6973,-0.7037,-0.7592,-0.7349,-0.742,-0.7576,-0.7721,-0.7743,-0.7815,-0.7812,-0.7801,-0.7856,-0.7799,-0.779,-0.7825,-0.7775,-0.7716,-0.7717,-0.7886,-0.7893,-0.7899,-0.7876,0,0,0,0,0,0,-0.6989,-0.7068,-0.7608,-0.7633,-0.7265,-0.7555,-0.7603,-0.7731,-0.7767,-0.777,-0.7816,-0.7809,-0.7806,-0.7797,-0.7791,-0.7777,-0.7715,-0.7716,-0.7716,-0.7891,-0.7896,-0.7901,0,0,0,0,0,0,-0.7034,-0.7089,-0.7621,-0.7511,-0.7524,-0.7536,-0.7578,-0.761,-0.7755,-0.7765,-0.7766,-0.781,-0.7697,-0.7803,-0.7798,-0.7856,-0.7714,-0.7715,-0.7715,-0.7716,-0.7895,-0.7899,0,0,0,0,0,0,-0.7058,-0.7106,-0.7505,-0.7515,-0.7527,-0.7814,-0.7551,-0.7846,-0.7889,-0.7754,-0.7869,-0.786,-0.7696,-0.7698,-0.7803,-0.7865,-0.7859,-0.7714,-0.7715,-0.7715,-0.7715,0,0,0,0,0,0,0,-0.7078,-0.674,-0.7457,-0.7519,-0.7528,-0.7862,-0.7869,-0.7876,-0.7887,-0.7879,-0.7872,-0.7864,-0.7709,-0.771,-0.7711,-0.7873,0,0,-0.7714,-0.7714,0,0,0,0,0,0,0,0,-0.6722,-0.6736,-0.7458,-0.7463,-0.7468,-0.7863,-0.7869,-0.7875,-0.7886,-0.788,-0.7873,-0.7867,-0.771,-0.771,-0.7711,0,0,0,0,0,0,0,0,0,0,0,0,0,0,0,-0.7459,-0.7463,0,-0.7864,-0.7869,-0.7873,-0.7885,-0.788,-0.7875,-0.787,-0.771,-0.7711,-0.7711,0,0,0,0,0,0,0,0,0,0,0,0,0,0,0,0,0,0,0,0,0,0,0,0,0,0,0,0,0,0,0,0,0,0,0,0,0,0,0,0,0,0,0,0,0,0,0,0,0,0,0,0,0,0,0,0,0,0,0,0,0,0,0,0,0,0,0,0,0]}],[{"header":{"parameterUnit":"kt","parameterCategory":2,"dx":1,"dy":1,"la1":30.253999710083008,"la2":30.299108505249023,"lo1":-89.0895004272461,"lo2":-89.04439544677734,"nx":28,"ny":28,"refTime":"2022-10-01T21:00:00:Z","depth":"0","parameterNumber":3,"parameterNumberName":"V-component_of_CURRENTS"},"data":[-0.2817,-0.3064,-0.3234,-0.2862,-0.2686,-0.2047,-0.1649,-0.1046,-0.0534,0.0508,0.1104,0.1442,0.169,0.1867,0.2179,0.2252,0.2401,0.2396,0.2463,0.2053,0.1982,0.1914,0.1957,0.2592,0.2592,0.2953,0.2957,0.296,-0.2797,-0.3038,-0.325,-0.3304,-0.3008,-0.303,-0.2584,-0.2154,-0.1389,-0.0876,-0.0258,0.0493,0.0985,0.1201,0.1579,0.1764,0.1722,0.1838,0.175,0.1809,0.1318,0.1354,0.1871,0.1871,0.1871,0.1871,0.187,0.187,-0.2808,-0.3008,-0.3264,-0.3454,-0.3405,-0.3106,-0.2903,-0.2606,-0.2173,-0.1471,-0.1357,-0.0659,-0.027,0.0461,0.066,0.1042,0.0874,0.1124,0.1117,0.1057,0.1218,0.0707,0.1061,0.106,0.1058,0.1057,0.1056,0,-0.2784,-0.2932,-0.3153,-0.3358,-0.3429,-0.3404,-0.3308,-0.3164,-0.2866,-0.2597,-0.2013,-0.1665,-0.1072,-0.043,0.0063,0.0303,0.0326,0.0355,0.0505,0.0644,0.0678,0.0876,0.0192,0.0372,0.0367,0.0363,0.0359,0.0357,-0.2736,-0.2862,-0.3165,-0.3263,-0.3345,-0.3457,-0.3405,-0.3322,-0.3127,-0.2799,-0.258,-0.2194,-0.1666,-0.0998,-0.0576,-0.0139,-0.0032,0.0208,0.0123,0.0333,0.0435,0.0403,0.0506,0.0296,0.0304,0.031,0.0315,0,-0.2731,-0.2809,-0.3006,-0.3153,-0.3201,-0.3312,-0.328,-0.3208,-0.3096,-0.2854,-0.2802,-0.2388,-0.1948,-0.1596,-0.1163,-0.0919,-0.0419,-0.0375,-0.0254,-0.0133,0.0298,0.0318,0.0539,0.0687,-0.0038,-0.0031,-0.0026,0,-0.2669,-0.2764,-0.2904,-0.298,-0.3136,-0.306,-0.3108,-0.3049,-0.2863,-0.2675,-0.2523,-0.2285,-0.1983,-0.1657,-0.1396,-0.0917,-0.1037,-0.063,-0.0517,-0.0444,-0.0412,-0.0164,-0.0127,-0.0857,-0.0859,-0.086,-0.0862,0,-0.2575,-0.2663,-0.2806,-0.2811,-0.2826,-0.2869,-0.2856,-0.2683,-0.2589,-0.2429,-0.2335,-0.2129,-0.1941,-0.1769,-0.132,-0.1353,-0.0979,-0.0984,-0.0588,-0.0565,-0.0372,-0.0329,-0.021,-0.0864,-0.0864,-0.0865,-0.0866,0,-0.245,-0.253,-0.2646,-0.2702,-0.2698,-0.2704,-0.2653,-0.2568,-0.2345,-0.2209,-0.207,-0.185,-0.1709,-0.157,-0.1298,-0.1327,-0.1122,-0.095,-0.0937,-0.0642,-0.0462,-0.0233,-0.0228,-0.0049,-0.0693,-0.0693,-0.0693,0,-0.2397,-0.2483,-0.2418,-0.2489,-0.2521,-0.2376,-0.2311,-0.2177,-0.2023,-0.19,-0.1685,-0.1538,-0.1369,-0.1305,-0.1247,-0.099,-0.0958,-0.1,-0.0704,-0.0695,-0.052,-0.0565,-0.0452,-0.0248,-0.0696,-0.0695,-0.0695,0,-0.23,-0.2296,-0.2286,-0.2322,-0.2173,-0.2145,-0.207,-0.1946,-0.1909,-0.1694,-0.1625,-0.1385,-0.127,-0.1154,-0.097,-0.0941,-0.0942,-0.0803,-0.0796,-0.0758,-0.0826,-0.0591,-0.0566,-0.0897,-0.0899,-0.0901,-0.0697,0,-0.2171,-0.2197,-0.2213,-0.2135,-0.2071,-0.2046,-0.185,-0.178,-0.1643,-0.1481,-0.1332,-0.1126,-0.0962,-0.0859,-0.0733,-0.0706,-0.0606,-0.0545,-0.0512,-0.0598,-0.0481,-0.0481,-0.0418,-0.0413,-0.041,-0.0406,0,0,-0.2066,-0.2096,-0.1973,-0.1954,-0.1906,-0.1704,-0.1702,-0.1558,-0.1339,-0.1283,-0.1193,-0.0889,-0.0726,-0.0616,-0.0598,-0.0501,-0.0433,-0.0489,-0.0531,-0.0546,-0.0559,-0.0457,-0.0461,-0.04,-0.0399,-0.0397,-0.0396,0,-0.198,-0.1963,-0.199,-0.1894,-0.175,-0.1629,-0.1622,-0.1411,-0.1296,-0.1192,-0.1001,-0.0897,-0.0661,-0.0532,-0.0432,-0.0461,-0.0303,-0.0353,-0.0533,-0.05,-0.052,-0.0537,-0.0441,-0.0448,-0.0387,-0.0388,-0.0388,0,-0.185,-0.1783,-0.1789,-0.1683,-0.1569,-0.1511,-0.1339,-0.1256,-0.1183,-0.0982,-0.0872,-0.0715,-0.0512,-0.041,-0.0353,-0.0329,-0.0238,-0.0226,-0.0241,-0.0276,-0.0238,-0.026,-0.028,-0.0042,-0.0042,-0.0042,0,0,-0.1772,-0.1785,-0.1614,-0.1646,-0.1597,-0.139,-0.1318,-0.1197,-0.1053,-0.0991,-0.083,-0.0669,-0.052,-0.0463,-0.0306,-0.0256,-0.0189,-0.0197,-0.0213,-0.0227,-0.027,-0.0236,-0.0256,-0.0042,-0.0042,-0.0042,0,0,-0.1705,-0.1572,-0.1514,-0.1555,-0.1413,-0.1185,-0.1166,-0.1043,-0.0918,-0.0912,-0.0705,-0.066,-0.0551,-0.0443,-0.0472,-0.0269,-0.0185,-0.0177,-0.0381,-0.0399,-0.0414,-0.0503,-0.0284,0,0,0,0,0,-0.152,-0.1598,-0.1549,-0.1533,-0.1368,-0.123,-0.1192,-0.1014,-0.0949,-0.0928,-0.0798,-0.0668,-0.0399,-0.0422,-0.0384,-0.0357,-0.0046,-0.0045,-0.0044,-0.0287,-0.0308,-0.0325,0,0,0,0,0,0,-0.1512,-0.15,-0.1543,-0.1343,-0.1301,-0.1228,-0.1087,-0.1037,-0.0946,-0.0923,-0.07,-0.0662,-0.0517,-0.0428,-0.0397,-0.0374,-0.0294,-0.0045,-0.0045,-0.0044,-0.0294,-0.0311,-0.0325,0,0,0,0,0,-0.1505,-0.1494,-0.1308,-0.1335,-0.1299,-0.1073,-0.1085,-0.1042,-0.0961,-0.0744,-0.07,-0.0835,-0.0523,-0.0485,-0.0409,-0.0392,-0.0314,-0.0303,-0.0045,-0.0045,-0.0044,-0.0302,0,0,0,0,0,0,-0.1499,-0.1419,-0.1293,-0.127,-0.1322,-0.1069,-0.1036,-0.1048,-0.0783,-0.0741,-0.0871,-0.0856,-0.0526,-0.0496,-0.0468,-0.0406,-0.0331,-0.0319,-0.0313,-0.0045,-0.0044,-0.0044,0,0,0,0,0,0,-0.1422,-0.1403,-0.1281,-0.1276,-0.125,-0.1067,-0.1039,-0.0938,-0.0783,-0.0923,-0.0903,-0.0868,-0.0579,-0.0505,-0.0482,-0.0328,-0.0343,-0.0333,-0.0325,-0.0321,-0.0044,-0.0044,0,0,0,0,0,0,-0.1408,-0.139,-0.128,-0.1261,-0.1238,-0.0959,-0.097,-0.0818,-0.0768,-0.0938,-0.0761,-0.0758,-0.0592,-0.0564,-0.0492,-0.0349,-0.0333,-0.0343,-0.0336,-0.033,-0.0327,0,0,0,0,0,0,0,-0.1396,-0.1593,-0.1437,-0.1248,-0.1228,-0.1056,-0.1049,-0.1042,-0.0768,-0.0765,-0.0762,-0.0759,-0.0403,-0.0391,-0.038,-0.0366,0,0,-0.0344,-0.0339,0,0,0,0,0,0,0,0,-0.1592,-0.1593,-0.1437,-0.1432,-0.1428,-0.1055,-0.1049,-0.1043,-0.0767,-0.0765,-0.0762,-0.076,-0.04,-0.039,-0.0381,0,0,0,0,0,0,0,0,0,0,0,0,0,0,0,-0.1436,-0.1433,0,-0.1054,-0.1049,-0.1045,-0.0767,-0.0765,-0.0763,-0.0761,-0.0397,-0.039,-0.0382,0,0,0,0,0,0,0,0,0,0,0,0,0,0,0,0,0,0,0,0,0,0,0,0,0,0,0,0,0,0,0,0,0,0,0,0,0,0,0,0,0,0,0,0,0,0,0,0,0,0,0,0,0,0,0,0,0,0,0,0,0,0,0,0,0,0,0,0,0]}]],[[{"header":{"parameterUnit":"kt","parameterCategory":2,"dx":1,"dy":1,"la1":30.253999710083008,"la2":30.299108505249023,"lo1":-89.0895004272461,"lo2":-89.04439544677734,"nx":28,"ny":28,"refTime":"2022-10-01T21:00:00:Z","depth":"2","parameterNumber":2,"parameterNumberName":"U-component_of_CURRENTS"},"data":[-0.3683,-0.3571,-0.351,-0.3165,-0.3175,-0.2913,-0.2851,-0.2704,-0.249,-0.22,-0.1971,-0.2055,-0.1894,-0.144,-0.1299,-0.0995,-0.1414,-0.0894,-0.1722,-0.2166,-0.2264,-0.2545,-0.2126,0,0,0,0,0,-0.3778,-0.3743,-0.3779,-0.3735,-0.3613,-0.3798,-0.3809,-0.3621,-0.3441,-0.3416,-0.3183,-0.2645,-0.2204,-0.2026,-0.16,-0.1485,-0.1644,-0.1429,-0.1719,-0.1827,-0.1925,-0.1585,-0.0855,-0.0852,-0.085,-0.0848,0,0,-0.3941,-0.3937,-0.3946,-0.3962,-0.4067,-0.4052,-0.4031,-0.4084,-0.4068,-0.3991,-0.406,-0.3641,-0.3485,-0.2694,-0.2483,-0.2343,-0.2628,-0.2596,-0.2651,-0.2718,-0.2401,-0.2328,-0.1892,-0.1897,-0.1901,-0.1904,-0.1908,0,-0.4002,-0.4036,-0.4068,-0.4122,-0.4206,-0.4295,-0.4362,-0.4433,-0.4622,-0.4659,-0.4507,-0.4359,-0.405,-0.3524,-0.3269,-0.3132,-0.355,-0.3291,-0.4136,-0.3339,-0.331,-0.3303,-0.3349,-0.3095,-0.3107,-0.3115,-0.3122,-0.3126,-0.4097,-0.4081,-0.418,-0.4228,-0.4265,-0.4377,-0.4469,-0.4629,-0.4656,-0.487,-0.4842,-0.4857,-0.4621,-0.4344,-0.4111,-0.3944,-0.4175,-0.3582,-0.3448,-0.4193,-0.4179,-0.4192,-0.4201,-0.3252,-0.3236,-0.3223,-0.3212,0,-0.4159,-0.4189,-0.4206,-0.4286,-0.4329,-0.4377,-0.457,-0.4644,-0.4767,-0.4902,-0.4953,-0.4993,-0.4879,-0.4876,-0.4838,-0.47,-0.4554,-0.4428,-0.4168,-0.4081,-0.4287,-0.4278,-0.4162,-0.4146,-0.4132,-0.412,-0.411,0,-0.4271,-0.4266,-0.4338,-0.4331,-0.4377,-0.4463,-0.455,-0.4611,-0.4741,-0.4847,-0.4919,-0.4919,-0.4975,-0.4955,-0.4921,-0.4681,-0.4908,-0.4501,-0.4468,-0.4213,-0.4154,-0.5003,-0.501,-0.492,-0.4918,-0.4915,-0.4913,0,-0.4378,-0.4402,-0.4384,-0.4398,-0.4489,-0.4501,-0.4567,-0.4663,-0.4736,-0.4828,-0.493,-0.4916,-0.495,-0.493,-0.4864,-0.4894,-0.4863,-0.4899,-0.4518,-0.4498,-0.4322,-0.4273,-0.4911,-0.491,-0.4909,-0.4909,-0.4908,0,-0.4482,-0.4511,-0.4467,-0.456,-0.4571,-0.457,-0.4658,-0.4677,-0.4761,-0.4825,-0.4861,-0.4913,-0.4854,-0.4823,-0.4803,-0.4774,-0.4793,-0.4783,-0.4792,-0.4452,-0.4421,-0.4366,-0.408,-0.4957,-0.4955,-0.4954,-0.4953,0,-0.4605,-0.4587,-0.4633,-0.4619,-0.4619,-0.4712,-0.4699,-0.4751,-0.482,-0.4913,-0.4843,-0.4851,-0.4796,-0.4805,-0.4735,-0.4705,-0.471,-0.4629,-0.489,-0.4903,-0.4493,-0.4243,-0.3907,-0.4091,-0.4934,-0.4936,-0.4938,0,-0.4696,-0.4747,-0.4745,-0.4764,-0.483,-0.4875,-0.4834,-0.4871,-0.4908,-0.4967,-0.5014,-0.4788,-0.49,-0.4842,-0.4781,-0.4744,-0.4694,-0.4806,-0.4811,-0.4962,-0.4781,-0.4291,-0.4258,-0.4623,-0.4623,-0.4622,-0.4923,0,-0.48,-0.4809,-0.4819,-0.4853,-0.4896,-0.4914,-0.4961,-0.5018,-0.5095,-0.514,-0.5109,-0.5033,-0.5041,-0.4957,-0.4888,-0.479,-0.4916,-0.4872,-0.5029,-0.4884,-0.5041,-0.5051,-0.5006,-0.5011,-0.5015,-0.5018,0,0,-0.4885,-0.4879,-0.4979,-0.4987,-0.5023,-0.5144,-0.5128,-0.5121,-0.523,-0.5259,-0.5321,-0.5252,-0.5224,-0.5044,-0.4956,-0.4937,-0.5034,-0.5113,-0.4939,-0.4928,-0.492,-0.5061,-0.5066,-0.5025,-0.5027,-0.5028,-0.5029,0,-0.492,-0.4977,-0.4969,-0.5016,-0.5115,-0.5144,-0.5188,-0.529,-0.5317,-0.5309,-0.5302,-0.5273,-0.5297,-0.5218,-0.5159,-0.4993,-0.5199,-0.5019,-0.5001,-0.497,-0.4955,-0.4942,-0.5076,-0.5078,-0.5039,-0.5038,-0.5038,0,-0.4966,-0.5043,-0.5046,-0.5132,-0.5169,-0.5167,-0.5274,-0.533,-0.5314,-0.5401,-0.5436,-0.5423,-0.538,-0.5304,-0.5314,-0.5398,-0.5372,-0.5359,-0.5339,-0.544,-0.5421,-0.5401,-0.5383,-0.5621,-0.5622,-0.5623,0,0,-0.5005,-0.5032,-0.5125,-0.5148,-0.5176,-0.5244,-0.5275,-0.5329,-0.5362,-0.5373,-0.5481,-0.5504,-0.5417,-0.5463,-0.545,-0.5429,-0.5542,-0.5423,-0.5396,-0.5372,-0.5457,-0.5434,-0.5414,-0.5628,-0.5628,-0.5628,0,0,-0.503,-0.5129,-0.5157,-0.5178,-0.525,-0.5303,-0.5314,-0.5377,-0.5376,-0.5383,-0.5473,-0.5495,-0.5475,-0.5558,-0.5603,-0.5535,-0.5656,-0.5648,-0.5476,-0.5444,-0.5417,-0.5514,-0.5752,0,0,0,0,0,-0.5123,-0.5115,-0.5139,-0.5158,-0.5207,-0.5271,-0.5272,-0.5349,-0.5402,-0.5414,-0.5417,-0.5553,-0.5561,-0.5602,-0.562,-0.5586,-0.569,-0.5679,-0.5669,-0.544,-0.5404,-0.5374,0,0,0,0,0,0,-0.5131,-0.5148,-0.5142,-0.5195,-0.5211,-0.5267,-0.5312,-0.5326,-0.5405,-0.5422,-0.5522,-0.5551,-0.5588,-0.5604,-0.5618,-0.5583,-0.5748,-0.5685,-0.5676,-0.5668,-0.5427,-0.5398,-0.5373,0,0,0,0,0,-0.5138,-0.5152,-0.523,-0.5193,-0.5205,-0.5308,-0.5316,-0.5329,-0.5376,-0.5472,-0.55,-0.5462,-0.558,-0.5605,-0.5613,-0.5573,-0.574,-0.5745,-0.5679,-0.5672,-0.5666,-0.5413,0,0,0,0,0,0,-0.5143,-0.5093,-0.5231,-0.5237,-0.5262,-0.5308,-0.5321,-0.5331,-0.5423,-0.5451,-0.541,-0.5422,-0.5574,-0.5594,-0.5612,-0.5562,-0.5733,-0.5738,-0.5741,-0.5674,-0.5668,-0.5663,0,0,0,0,0,0,-0.509,-0.5096,-0.5233,-0.5316,-0.533,-0.5308,-0.532,-0.5347,-0.5428,-0.535,-0.5366,-0.5416,-0.5636,-0.5585,-0.56,-0.5628,-0.5728,-0.5733,-0.5736,-0.5738,-0.5669,-0.5665,0,0,0,0,0,0,-0.5093,-0.5098,-0.5312,-0.5323,-0.5335,-0.5375,-0.5336,-0.5416,-0.5397,-0.5345,-0.5416,-0.5424,-0.5631,-0.5642,-0.5591,-0.5612,-0.5624,-0.5728,-0.5731,-0.5733,-0.5735,0,0,0,0,0,0,0,-0.5095,-0.5053,-0.524,-0.5329,-0.5339,-0.5297,-0.5294,-0.5292,-0.5399,-0.5406,-0.5414,-0.542,-0.5704,-0.5708,-0.5713,-0.5598,0,0,-0.5728,-0.573,0,0,0,0,0,0,0,0,-0.5052,-0.5053,-0.524,-0.5244,-0.5247,-0.5296,-0.5294,-0.5292,-0.54,-0.5406,-0.5412,-0.5418,-0.5705,-0.5709,-0.5713,0,0,0,0,0,0,0,0,0,0,0,0,0,0,0,-0.5241,-0.5243,0,-0.5296,-0.5294,-0.5293,-0.5401,-0.5406,-0.5411,-0.5416,-0.5706,-0.5709,-0.5712,0,0,0,0,0,0,0,0,0,0,0,0,0,0,0,0,0,0,0,0,0,0,0,0,0,0,0,0,0,0,0,0,0,0,0,0,0,0,0,0,0,0,0,0,0,0,0,0,0,0,0,0,0,0,0,0,0,0,0,0,0,0,0,0,0,0,0,0,0]}],[{"header":{"parameterUnit":"kt","parameterCategory":2,"dx":1,"dy":1,"la1":30.253999710083008,"la2":30.299108505249023,"lo1":-89.0895004272461,"lo2":-89.04439544677734,"nx":28,"ny":28,"refTime":"2022-10-01T21:00:00:Z","depth":"2","parameterNumber":3,"parameterNumberName":"V-component_of_CURRENTS"},"data":[-0.2204,-0.2379,-0.2424,-0.2536,-0.2574,-0.253,-0.2396,-0.2111,-0.1749,-0.1237,-0.0816,-0.0527,0.0077,0.0337,0.0666,0.0961,0.0872,0.0925,0.0898,0.0732,0.0715,0.091,0.083,0,0,0,0,0,-0.2111,-0.2206,-0.2336,-0.2425,-0.2456,-0.2429,-0.2281,-0.2162,-0.1822,-0.1357,-0.097,-0.0505,-0.0003,0.0418,0.0885,0.1128,0.1057,0.1103,0.1003,0.099,0.0978,0.0934,0.1109,0.1109,0.1109,0.1109,0,0,-0.1949,-0.2043,-0.2116,-0.2215,-0.2265,-0.223,-0.2213,-0.2018,-0.1816,-0.1399,-0.1108,-0.0621,-0.0215,0.0391,0.0698,0.0939,0.0941,0.0983,0.0974,0.0963,0.0925,0.0876,0.1093,0.1093,0.1093,0.1093,0.1093,0,-0.1815,-0.1831,-0.1876,-0.1994,-0.204,-0.2065,-0.2025,-0.1958,-0.1711,-0.1525,-0.1109,-0.0822,-0.0281,0.0177,0.0558,0.0751,0.0727,0.0844,0.0747,0.0713,0.0656,0.066,0.0637,0.0841,0.084,0.0839,0.0838,0.0837,-0.1667,-0.1698,-0.1721,-0.1783,-0.1783,-0.1823,-0.1843,-0.1708,-0.1634,-0.1311,-0.1218,-0.0897,-0.0565,-0.0048,0.0281,0.0633,0.0613,0.0798,0.0776,0.0625,0.0634,0.0611,0.059,0.0822,0.0824,0.0825,0.0827,0,-0.1608,-0.1567,-0.1605,-0.157,-0.157,-0.1615,-0.1582,-0.1575,-0.1442,-0.1317,-0.1274,-0.0959,-0.0627,-0.0367,0.0013,0.0185,0.0475,0.0589,0.0523,0.0549,0.0583,0.0565,0.0802,0.0805,0.0808,0.0811,0.0813,0,-0.1495,-0.1512,-0.1473,-0.1482,-0.1519,-0.143,-0.1443,-0.1369,-0.1255,-0.1168,-0.1015,-0.0854,-0.0592,-0.036,-0.0136,0.0196,0.019,0.0414,0.0449,0.0416,0.0415,0.0364,0.0356,0.0414,0.0412,0.0411,0.041,0,-0.1442,-0.1405,-0.1419,-0.1397,-0.1332,-0.1319,-0.1289,-0.1173,-0.1136,-0.0995,-0.094,-0.0725,-0.0605,-0.0397,-0.0111,-0.0144,0.0202,0.0189,0.0376,0.0379,0.048,0.0486,0.0408,0.0408,0.0408,0.0407,0.0407,0,-0.1349,-0.135,-0.1347,-0.1304,-0.1296,-0.1262,-0.1192,-0.1136,-0.0995,-0.0925,-0.0792,-0.0689,-0.0487,-0.0434,-0.0131,-0.0224,-0.0076,0.0051,0.0059,0.0193,0.0186,0.033,0.0355,0.0136,0.0134,0.0131,0.0129,0,-0.1323,-0.1321,-0.1265,-0.1243,-0.1238,-0.115,-0.1098,-0.1008,-0.0922,-0.0837,-0.0677,-0.0584,-0.0488,-0.0445,-0.0313,-0.0159,-0.0048,-0.0147,0.0093,0.0102,0.0156,0.0163,0.0153,0.0311,0.0097,0.0101,0.0103,0,-0.1297,-0.1243,-0.1243,-0.1232,-0.1148,-0.1124,-0.1055,-0.0967,-0.0932,-0.0804,-0.0734,-0.0545,-0.0485,-0.0387,-0.0292,-0.0174,-0.0097,-0.0146,-0.0138,-0.0068,0.0066,0.0112,0.0137,-0.0102,-0.0098,-0.0095,0.0078,0,-0.1217,-0.1209,-0.1217,-0.1173,-0.113,-0.1108,-0.1017,-0.0968,-0.0911,-0.0829,-0.0714,-0.0565,-0.0419,-0.0371,-0.0297,-0.018,-0.018,-0.0155,-0.0045,-0.0087,-0.0012,0.0007,-0.0174,-0.0171,-0.0169,-0.0167,0,0,-0.12,-0.1193,-0.1159,-0.1143,-0.111,-0.1037,-0.1013,-0.0948,-0.0824,-0.0781,-0.0759,-0.0536,-0.039,-0.0247,-0.026,-0.0212,-0.0174,-0.0119,-0.0094,-0.0087,-0.0079,-0.0009,0.0006,-0.0163,-0.0162,-0.0161,-0.016,0,-0.117,-0.1165,-0.1173,-0.1125,-0.1069,-0.1013,-0.1007,-0.0916,-0.0866,-0.0775,-0.0693,-0.0587,-0.0398,-0.0273,-0.0188,-0.02,-0.0053,-0.0183,-0.0171,-0.0079,-0.0075,-0.0071,-0.0003,0.001,-0.0154,-0.0155,-0.0155,0,-0.1131,-0.1111,-0.1107,-0.1058,-0.1017,-0.0975,-0.0923,-0.0886,-0.0834,-0.0699,-0.06,-0.0516,-0.0357,-0.0249,-0.0182,-0.0126,0.0055,0.001,-0.0001,0.006,0.0163,0.0165,0.0167,0.0153,0.0154,0.0154,0,0,-0.1113,-0.1118,-0.1044,-0.1046,-0.1029,-0.0945,-0.0912,-0.0861,-0.0779,-0.0743,-0.0602,-0.0472,-0.0364,-0.0263,-0.0151,-0.0021,0.0075,0.0042,0.0028,0.0015,0.0067,0.0168,0.0169,0.0156,0.0156,0.0156,0,0,-0.1092,-0.1042,-0.1017,-0.1022,-0.0956,-0.0865,-0.0855,-0.0803,-0.0719,-0.0717,-0.0542,-0.0494,-0.0387,-0.0262,-0.0264,-0.0072,-0.0009,-0.0004,-0.0133,-0.0149,-0.0163,-0.0133,-0.0088,0,0,0,0,0,-0.1032,-0.1054,-0.1032,-0.1023,-0.0948,-0.0883,-0.0866,-0.0793,-0.0777,-0.0758,-0.0666,-0.0522,-0.025,-0.0248,-0.0195,-0.0138,0.0182,0.0177,0.0173,0.0034,0.0015,-0.0001,0,0,0,0,0,0,-0.1029,-0.1021,-0.103,-0.095,-0.0931,-0.0883,-0.0838,-0.0817,-0.0776,-0.0767,-0.0557,-0.0516,-0.0389,-0.026,-0.0215,-0.0165,-0.0102,0.018,0.0176,0.0173,0.0027,0.0012,-0.0001,0,0,0,0,0,-0.1025,-0.1019,-0.093,-0.0947,-0.0931,-0.0836,-0.0838,-0.082,-0.0783,-0.0587,-0.0549,-0.0731,-0.0394,-0.0344,-0.0232,-0.0189,-0.0131,-0.0115,0.0178,0.0174,0.0172,0.002,0,0,0,0,0,0,-0.1022,-0.0989,-0.0924,-0.0914,-0.0944,-0.0835,-0.0821,-0.0823,-0.06,-0.0568,-0.075,-0.0744,-0.0396,-0.0357,-0.032,-0.0209,-0.0155,-0.0139,-0.0129,0.0175,0.0173,0.0171,0,0,0,0,0,0,-0.0991,-0.0982,-0.0919,-0.092,-0.0909,-0.0835,-0.0823,-0.0662,-0.0593,-0.0772,-0.0764,-0.0749,-0.0398,-0.0366,-0.0337,-0.0092,-0.0173,-0.0158,-0.0147,-0.014,0.0173,0.0171,0,0,0,0,0,0,-0.0984,-0.0976,-0.0922,-0.0914,-0.0904,-0.0785,-0.0682,-0.0576,-0.0707,-0.0779,-0.0705,-0.0704,-0.0405,-0.0376,-0.0349,-0.0119,-0.0099,-0.0173,-0.0162,-0.0155,-0.015,0,0,0,0,0,0,0,-0.0979,-0.1067,-0.0985,-0.0908,-0.09,-0.0822,-0.0819,-0.0816,-0.0707,-0.0706,-0.0705,-0.0704,-0.026,-0.0244,-0.0227,-0.014,0,0,-0.0174,-0.0167,0,0,0,0,0,0,0,0,-0.1067,-0.1067,-0.0985,-0.0983,-0.0981,-0.0821,-0.0819,-0.0817,-0.0707,-0.0706,-0.0705,-0.0704,-0.0256,-0.0242,-0.0229,0,0,0,0,0,0,0,0,0,0,0,0,0,0,0,-0.0985,-0.0983,0,-0.0821,-0.0819,-0.0817,-0.0707,-0.0706,-0.0705,-0.0705,-0.0252,-0.0241,-0.023,0,0,0,0,0,0,0,0,0,0,0,0,0,0,0,0,0,0,0,0,0,0,0,0,0,0,0,0,0,0,0,0,0,0,0,0,0,0,0,0,0,0,0,0,0,0,0,0,0,0,0,0,0,0,0,0,0,0,0,0,0,0,0,0,0,0,0,0,0]}]],[[{"header":{"parameterUnit":"kt","parameterCategory":2,"dx":1,"dy":1,"la1":30.253999710083008,"la2":30.299108505249023,"lo1":-89.0895004272461,"lo2":-89.04439544677734,"nx":28,"ny":28,"refTime":"2022-10-01T21:00:00:Z","depth":"4","parameterNumber":2,"parameterNumberName":"U-component_of_CURRENTS"},"data":[-0.2565,-0.2551,-0.2415,-0.2099,-0.1965,-0.1907,-0.1957,-0.2069,-0.1961,-0.2119,-0.2071,-0.2207,-0.2136,-0.2256,-0.2051,-0.2062,-0.2113,-0.2215,-0.2208,-0.2412,-0.2439,-0.2463,-0.2503,0,0,0,0,0,-0.2653,-0.2542,-0.2515,-0.2422,-0.2438,-0.241,-0.2516,-0.2606,-0.2701,-0.2472,-0.2538,-0.24,-0.2265,-0.2308,-0.2139,-0.2373,-0.2383,-0.2172,-0.2337,-0.2429,-0.2459,-0.2487,0,0,0,0,0,0,-0.2731,-0.2722,-0.2756,-0.2736,-0.2784,-0.267,-0.277,-0.2679,-0.2672,-0.2719,-0.2649,-0.2634,-0.2717,-0.2574,-0.2505,-0.2409,-0.2364,-0.2304,-0.2339,-0.2369,-0.2365,-0.2285,-0.1926,0,0,0,0,0,-0.2781,-0.2858,-0.2914,-0.2944,-0.3001,-0.3017,-0.305,-0.3017,-0.3075,-0.322,-0.3014,-0.2938,-0.2793,-0.273,-0.2654,-0.2574,-0.2818,-0.2689,-0.2705,-0.2758,-0.2723,-0.2681,-0.2703,-0.2574,-0.2578,-0.2581,-0.2582,0,-0.2866,-0.2895,-0.3055,-0.3084,-0.3156,-0.3245,-0.3279,-0.3405,-0.3375,-0.3399,-0.3323,-0.3287,-0.3277,-0.2939,-0.3004,-0.2862,-0.2849,-0.2769,-0.2827,-0.2773,-0.2721,-0.2736,-0.2748,-0.2607,-0.2605,-0.2603,-0.2601,0,-0.2907,-0.2999,-0.3072,-0.3216,-0.3266,-0.3319,-0.3428,-0.3444,-0.3545,-0.3511,-0.3529,-0.3576,-0.3451,-0.3444,-0.3338,-0.3232,-0.3089,-0.2999,-0.3272,-0.3221,-0.279,-0.2794,-0.2647,-0.2638,-0.263,-0.2624,-0.2619,0,-0.2998,-0.3054,-0.319,-0.3219,-0.3298,-0.3387,-0.346,-0.3541,-0.361,-0.3585,-0.3701,-0.3653,-0.368,-0.3606,-0.3541,-0.3305,-0.3422,-0.3143,-0.3073,-0.3364,-0.3364,-0.3325,-0.3321,-0.3374,-0.3376,-0.3377,-0.3378,0,-0.3059,-0.3143,-0.3204,-0.3237,-0.3346,-0.3412,-0.3473,-0.3567,-0.3595,-0.3686,-0.3685,-0.372,-0.3676,-0.365,-0.3532,-0.3546,-0.3415,-0.3401,-0.314,-0.3121,-0.3331,-0.3324,-0.338,-0.338,-0.338,-0.3381,-0.3381,0,-0.3123,-0.3166,-0.3224,-0.3321,-0.3342,-0.339,-0.3504,-0.3544,-0.3618,-0.365,-0.3689,-0.3671,-0.3667,-0.3649,-0.3563,-0.3586,-0.3513,-0.3443,-0.3435,-0.3205,-0.3107,-0.3252,-0.3273,-0.3273,-0.3274,-0.3274,-0.3274,0,-0.317,-0.3207,-0.3247,-0.3305,-0.3329,-0.3406,-0.3459,-0.3515,-0.3554,-0.3579,-0.3591,-0.3582,-0.3564,-0.3549,-0.3562,-0.3451,-0.3451,-0.3487,-0.3334,-0.3329,-0.3157,-0.313,-0.3453,-0.3279,-0.3279,-0.3278,-0.3278,0,-0.3182,-0.3249,-0.3261,-0.3295,-0.3356,-0.3361,-0.3436,-0.3472,-0.3525,-0.3522,-0.3557,-0.3527,-0.3511,-0.3494,-0.3448,-0.3452,-0.3443,-0.3404,-0.3401,-0.3357,-0.3379,-0.3159,-0.3134,-0.3446,-0.3447,-0.3448,-0.3281,0,-0.3227,-0.3259,-0.3271,-0.3304,-0.3324,-0.3345,-0.3373,-0.3401,-0.3441,-0.3435,-0.3451,-0.3392,-0.3373,-0.3353,-0.3322,-0.3348,-0.3292,-0.328,-0.3285,-0.3312,-0.3223,-0.3221,-0.3222,-0.322,-0.3219,-0.3217,0,0,-0.3245,-0.3246,-0.3262,-0.3271,-0.3294,-0.3321,-0.3336,-0.3344,-0.3327,-0.3345,-0.3345,-0.3292,-0.3266,-0.3271,-0.3269,-0.3228,-0.3192,-0.3271,-0.3281,-0.3289,-0.3295,-0.3215,-0.3215,-0.3215,-0.3214,-0.3214,-0.3213,0,-0.323,-0.3258,-0.3267,-0.3271,-0.3291,-0.3282,-0.3311,-0.329,-0.3313,-0.3311,-0.3287,-0.3281,-0.3237,-0.3215,-0.3204,-0.3207,-0.318,-0.319,-0.3277,-0.3269,-0.3278,-0.3286,-0.321,-0.321,-0.321,-0.321,-0.321,0,-0.3231,-0.3236,-0.3248,-0.3236,-0.3236,-0.3237,-0.3236,-0.3257,-0.3279,-0.3236,-0.326,-0.322,-0.3182,-0.3166,-0.3171,-0.3169,-0.3167,-0.3169,-0.3174,-0.3202,-0.3193,-0.3202,-0.3211,-0.3107,-0.3107,-0.3108,0,0,-0.3225,-0.3244,-0.3224,-0.323,-0.3235,-0.3226,-0.3227,-0.3238,-0.3228,-0.3235,-0.3221,-0.3209,-0.3186,-0.3199,-0.3154,-0.3149,-0.312,-0.3163,-0.3167,-0.3172,-0.3202,-0.3193,-0.3202,-0.3109,-0.3109,-0.3109,0,0,-0.3214,-0.3217,-0.3232,-0.3231,-0.322,-0.3174,-0.3189,-0.3203,-0.32,-0.3238,-0.3213,-0.3212,-0.322,-0.3192,-0.3206,-0.3182,-0.3153,-0.3149,-0.323,-0.3235,-0.324,-0.3289,-0.3196,0,0,0,0,0,-0.3214,-0.3214,-0.3228,-0.3228,-0.3196,-0.3162,-0.3155,-0.3168,-0.3217,-0.3219,-0.3221,-0.3229,-0.3181,-0.3192,-0.3185,-0.3219,-0.312,-0.3118,-0.3116,-0.3215,-0.3221,-0.3226,0,0,0,0,0,0,-0.3214,-0.3212,-0.3228,-0.3184,-0.3179,-0.3161,-0.3177,-0.3176,-0.3217,-0.3225,-0.3222,-0.3225,-0.3193,-0.3195,-0.3189,-0.3223,-0.3198,-0.3119,-0.3117,-0.3116,-0.3217,-0.3222,-0.3226,0,0,0,0,0,-0.3214,-0.3212,-0.3172,-0.3183,-0.3178,-0.3187,-0.3179,-0.318,-0.3217,-0.3182,-0.3187,-0.3244,-0.319,-0.3189,-0.3191,-0.3227,-0.3202,-0.32,-0.3118,-0.3116,-0.3115,-0.3219,0,0,0,0,0,0,-0.3214,-0.3183,-0.317,-0.3167,-0.3223,-0.319,-0.3188,-0.3183,-0.3173,-0.3177,-0.3196,-0.3201,-0.3186,-0.3186,-0.3185,-0.323,-0.3206,-0.3204,-0.3202,-0.3117,-0.3116,-0.3115,0,0,0,0,0,0,-0.3185,-0.318,-0.3168,-0.3217,-0.322,-0.3192,-0.3191,-0.3156,-0.3174,-0.3185,-0.319,-0.3199,-0.322,-0.3184,-0.3184,-0.3125,-0.3208,-0.3206,-0.3205,-0.3204,-0.3116,-0.3115,0,0,0,0,0,0,-0.3182,-0.3178,-0.3217,-0.3219,-0.3221,-0.3183,-0.3162,-0.3143,-0.3179,-0.3185,-0.3189,-0.3194,-0.3219,-0.3217,-0.3182,-0.3123,-0.3124,-0.3208,-0.3207,-0.3206,-0.3205,0,0,0,0,0,0,0,-0.318,-0.3215,-0.3199,-0.322,-0.3222,-0.3146,-0.3144,-0.3142,-0.318,-0.3184,-0.3188,-0.3192,-0.3221,-0.3219,-0.3216,-0.3121,0,0,-0.3209,-0.3208,0,0,0,0,0,0,0,0,-0.3216,-0.3215,-0.32,-0.32,-0.32,-0.3146,-0.3144,-0.3142,-0.3181,-0.3184,-0.3187,-0.319,-0.322,-0.3218,-0.3216,0,0,0,0,0,0,0,0,0,0,0,0,0,0,0,-0.32,-0.32,0,-0.3145,-0.3144,-0.3143,-0.3181,-0.3184,-0.3186,-0.3189,-0.322,-0.3218,-0.3217,0,0,0,0,0,0,0,0,0,0,0,0,0,0,0,0,0,0,0,0,0,0,0,0,0,0,0,0,0,0,0,0,0,0,0,0,0,0,0,0,0,0,0,0,0,0,0,0,0,0,0,0,0,0,0,0,0,0,0,0,0,0,0,0,0,0,0,0,0]}],[{"header":{"parameterUnit":"kt","parameterCategory":2,"dx":1,"dy":1,"la1":30.253999710083008,"la2":30.299108505249023,"lo1":-89.0895004272461,"lo2":-89.04439544677734,"nx":28,"ny":28,"refTime":"2022-10-01T21:00:00:Z","depth":"4","parameterNumber":3,"parameterNumberName":"V-component_of_CURRENTS"},"data":[-0.1375,-0.1518,-0.1547,-0.1717,-0.1789,-0.187,-0.1844,-0.172,-0.161,-0.1408,-0.1177,-0.0968,-0.0556,-0.0688,-0.0136,-0.0053,0.0064,0.0509,0.0512,0.0714,0.0718,0.0722,0.0548,0,0,0,0,0,-0.1296,-0.1391,-0.1513,-0.1616,-0.1711,-0.1747,-0.1725,-0.1652,-0.1476,-0.1368,-0.1218,-0.0969,-0.0549,-0.033,-0.0121,0.0024,0.0369,0.0273,0.0433,0.0717,0.0721,0.055,0,0,0,0,0,0,-0.1196,-0.1263,-0.1366,-0.147,-0.1576,-0.1624,-0.1589,-0.1521,-0.1435,-0.1165,-0.1109,-0.0769,-0.0538,-0.0172,0.0048,0.0269,0.0357,0.041,0.0431,0.0438,0.0258,0.0072,0.0177,0,0,0,0,0,-0.1103,-0.1137,-0.118,-0.1325,-0.1395,-0.1429,-0.1441,-0.1404,-0.1257,-0.1139,-0.0935,-0.069,-0.0423,-0.0096,0.0144,0.0385,0.0598,0.0656,0.0662,0.0651,0.0545,0.0524,0.0501,0.0738,0.0739,0.0739,0.0739,0,-0.1029,-0.1054,-0.1108,-0.1174,-0.119,-0.1214,-0.1247,-0.1128,-0.11,-0.0896,-0.0868,-0.0612,-0.0453,-0.0068,0.0193,0.0535,0.056,0.0666,0.0653,0.055,0.0533,0.0507,0.0483,0.0743,0.0743,0.0742,0.0742,0,-0.1001,-0.0999,-0.1031,-0.1026,-0.1037,-0.106,-0.1035,-0.1023,-0.09,-0.0832,-0.0791,-0.0549,-0.0319,-0.0081,0.0242,0.0345,0.0561,0.0614,0.0497,0.0488,0.0505,0.0477,0.0749,0.0748,0.0747,0.0746,0.0745,0,-0.0955,-0.0968,-0.0972,-0.0983,-0.1006,-0.0945,-0.0937,-0.088,-0.0774,-0.0728,-0.0561,-0.0481,-0.0214,-0.0042,0.0119,0.0321,0.0409,0.0455,0.0466,0.0399,0.0374,0.044,0.0416,0.0625,0.0623,0.0622,0.062,0,-0.0936,-0.0923,-0.094,-0.0932,-0.0897,-0.089,-0.0868,-0.0778,-0.0743,-0.0599,-0.0555,-0.0348,-0.0272,-0.0063,0.0073,0.0053,0.0358,0.0356,0.0396,0.0387,0.0421,0.04,0.0618,0.0618,0.0618,0.0617,0.0616,0,-0.0893,-0.0899,-0.091,-0.0875,-0.0872,-0.0864,-0.0809,-0.0773,-0.0652,-0.0609,-0.049,-0.043,-0.0267,-0.0275,-0.0003,-0.0111,0.0006,0.0091,0.0101,0.0042,-0.0033,0.0052,0.0162,0.0158,0.0154,0.015,0.0147,0,-0.0874,-0.0884,-0.0861,-0.0856,-0.0858,-0.0816,-0.079,-0.0731,-0.0685,-0.0611,-0.0511,-0.0464,-0.0455,-0.0442,-0.0309,-0.0232,-0.0092,-0.0238,0.0008,0.0016,-0.0063,0.0028,-0.0135,0.0091,0.0098,0.0103,0.0107,0,-0.0857,-0.0843,-0.0848,-0.084,-0.0813,-0.0803,-0.0777,-0.0721,-0.0686,-0.0638,-0.0564,-0.0526,-0.0482,-0.0459,-0.0446,-0.0327,-0.0177,-0.0343,-0.0336,-0.0237,0.0079,-0.0029,-0.0007,-0.0165,-0.0159,-0.0154,0.0068,0,-0.0813,-0.0816,-0.0827,-0.0815,-0.08,-0.0797,-0.0759,-0.0742,-0.0731,-0.0684,-0.063,-0.0603,-0.0549,-0.0556,-0.0567,-0.0442,-0.0457,-0.0459,-0.0409,-0.0369,-0.0289,-0.0259,-0.0611,-0.0611,-0.0611,-0.0611,0,0,-0.0794,-0.0798,-0.079,-0.0788,-0.0777,-0.0751,-0.0745,-0.0725,-0.0697,-0.0668,-0.0693,-0.0638,-0.0627,-0.0557,-0.0569,-0.0588,-0.0533,-0.0557,-0.0428,-0.0408,-0.039,-0.0308,-0.0279,-0.061,-0.061,-0.061,-0.061,0,-0.0775,-0.0781,-0.0793,-0.0776,-0.0757,-0.0738,-0.0737,-0.071,-0.0696,-0.0689,-0.0681,-0.0649,-0.0659,-0.0608,-0.0593,-0.0596,-0.0529,-0.0628,-0.0564,-0.0433,-0.0414,-0.0396,-0.0312,-0.0287,-0.061,-0.061,-0.061,0,-0.0749,-0.0742,-0.0748,-0.0731,-0.0723,-0.0712,-0.0694,-0.0689,-0.0671,-0.0661,-0.0653,-0.0654,-0.0637,-0.0627,-0.0621,-0.0605,-0.05,-0.0586,-0.0587,-0.0534,-0.0395,-0.0375,-0.0358,-0.0571,-0.0571,-0.0571,0,0,-0.0735,-0.0746,-0.0715,-0.0723,-0.0721,-0.0696,-0.0689,-0.0674,-0.0665,-0.0665,-0.0648,-0.0639,-0.0633,-0.0617,-0.0615,-0.0596,-0.0516,-0.058,-0.0582,-0.0584,-0.0534,-0.0396,-0.0378,-0.057,-0.057,-0.057,0,0,-0.0726,-0.071,-0.07,-0.071,-0.0686,-0.066,-0.067,-0.0651,-0.0652,-0.0662,-0.0636,-0.0632,-0.0633,-0.0615,-0.0611,-0.0585,-0.0579,-0.0579,-0.0584,-0.0586,-0.0588,-0.0528,-0.0574,0,0,0,0,0,-0.0694,-0.0711,-0.0702,-0.0699,-0.0684,-0.0662,-0.0659,-0.0646,-0.0648,-0.0648,-0.0649,-0.0622,-0.0611,-0.0607,-0.0601,-0.0582,-0.0562,-0.0563,-0.0565,-0.0569,-0.0572,-0.0574,0,0,0,0,0,0,-0.0693,-0.0692,-0.0701,-0.0677,-0.0672,-0.0663,-0.0655,-0.0652,-0.0648,-0.0647,-0.0626,-0.0621,-0.0604,-0.0607,-0.0603,-0.0585,-0.0576,-0.0562,-0.0564,-0.0565,-0.057,-0.0572,-0.0574,0,0,0,0,0,-0.0692,-0.0691,-0.0673,-0.0676,-0.0672,-0.0653,-0.0656,-0.0653,-0.0654,-0.0624,-0.062,-0.0644,-0.0605,-0.06,-0.0605,-0.0588,-0.0579,-0.0577,-0.0563,-0.0564,-0.0565,-0.0571,0,0,0,0,0,0,-0.0691,-0.0689,-0.0672,-0.0669,-0.0676,-0.0653,-0.0651,-0.0653,-0.0631,-0.0627,-0.064,-0.0639,-0.0605,-0.0601,-0.0597,-0.059,-0.0581,-0.058,-0.0579,-0.0564,-0.0565,-0.0565,0,0,0,0,0,0,-0.069,-0.0688,-0.0671,-0.0672,-0.0669,-0.0653,-0.0652,-0.0635,-0.063,-0.0649,-0.0647,-0.064,-0.0606,-0.0602,-0.0599,-0.0574,-0.0583,-0.0581,-0.058,-0.058,-0.0565,-0.0565,0,0,0,0,0,0,-0.0688,-0.0687,-0.0672,-0.0671,-0.0669,-0.0643,-0.0638,-0.0622,-0.0635,-0.065,-0.0635,-0.0635,-0.0606,-0.0603,-0.06,-0.0577,-0.0575,-0.0583,-0.0582,-0.0581,-0.0581,0,0,0,0,0,0,0,-0.0687,-0.0705,-0.0683,-0.067,-0.0668,-0.0647,-0.0647,-0.0646,-0.0635,-0.0635,-0.0635,-0.0635,-0.0592,-0.059,-0.0588,-0.0579,0,0,-0.0583,-0.0582,0,0,0,0,0,0,0,0,-0.0705,-0.0705,-0.0682,-0.0682,-0.0681,-0.0647,-0.0647,-0.0646,-0.0635,-0.0635,-0.0635,-0.0635,-0.0591,-0.059,-0.0589,0,0,0,0,0,0,0,0,0,0,0,0,0,0,0,-0.0682,-0.0682,0,-0.0647,-0.0647,-0.0646,-0.0635,-0.0635,-0.0635,-0.0635,-0.0591,-0.059,-0.0589,0,0,0,0,0,0,0,0,0,0,0,0,0,0,0,0,0,0,0,0,0,0,0,0,0,0,0,0,0,0,0,0,0,0,0,0,0,0,0,0,0,0,0,0,0,0,0,0,0,0,0,0,0,0,0,0,0,0,0,0,0,0,0,0,0,0,0,0,0]}]]]